Location: Killam
(52.7910°N, 111.8608°W)
Time: 11:57:40
(UTC+00:00)

FENGYUN 1C DEB - Pass Details

Date: 27 May 2024
Orbit: 795 x 992 km, 98.4° (Epoch: 16 June)

Event Time Altitude Azimuth Distance (km) Brightness Sun altitude
Rises 07:34:17 0° 8° (N) 3,315 ? -15.8°
Reaches altitude 10° 07:37:00 10° 355° (N) 2,389 ? -15.8°
Maximum altitude 07:41:03 23° 304° (NW) 1,654 ? -15.7°
Drops below altitude 10° 07:45:12 10° 253° (WSW) 2,433 ? -15.7°
Enters shadow 07:47:04 - 243° (WSW) 3,058 ? -15.6°
